VLG5VJ LEBL-LEPA

Flight info

Callsign VLG5VJ
Flight time 0h 30m
Altitude 19000
Route LARPA4F LARPA N859 TOLSO TOLSO2P
Aircraft A319/M-SDE3FGHIRWY/LB1

Departure

Time 2026-05-04 15:01
Airport Josep Tarradellas Barcelona-El Prat Airport (LEBL)

Arrival

Time 2026-05-04 15:31
Airport Palma de Mallorca Airport (LEPA)
Time Latitude Longitude Altitude Speed Heading
2026-05-04 14:27 41.29172 2.08014 21 ft 0 kts 155°
2026-05-04 14:50 41.29176 2.08011 20 ft 3 kts 155°
2026-05-04 14:50 41.29193 2.08001 21 ft 3 kts 155°
2026-05-04 14:50 41.29210 2.07991 20 ft 3 kts 155°
2026-05-04 14:50 41.29227 2.07980 20 ft 3 kts 172°
2026-05-04 14:51 41.29243 2.07970 22 ft 3 kts 95°
2026-05-04 14:51 41.29242 2.07958 22 ft 0 kts 64°
2026-05-04 14:54 41.29243 2.07961 19 ft 1 kts 64°
2026-05-04 14:54 41.29251 2.07981 20 ft 4 kts 63°
2026-05-04 14:54 41.29269 2.08033 20 ft 8 kts 66°
2026-05-04 14:54 41.29300 2.08121 19 ft 13 kts 65°
2026-05-04 14:55 41.29342 2.08245 20 ft 17 kts 66°
2026-05-04 14:55 41.29372 2.08352 19 ft 7 kts 93°
2026-05-04 14:55 41.29330 2.08401 21 ft 10 kts 157°
2026-05-04 14:55 41.29261 2.08442 21 ft 12 kts 155°
2026-05-04 14:56 41.29177 2.08492 20 ft 15 kts 156°
2026-05-04 14:56 41.29069 2.08557 16 ft 19 kts 156°
2026-05-04 14:56 41.28953 2.08627 18 ft 19 kts 155°
2026-05-04 14:56 41.28867 2.08735 17 ft 18 kts 77°
2026-05-04 14:57 41.28921 2.08899 18 ft 21 kts 66°
2026-05-04 14:57 41.28983 2.09081 17 ft 23 kts 65°
2026-05-04 14:57 41.29051 2.09278 17 ft 25 kts 66°
2026-05-04 14:57 41.29123 2.09492 18 ft 26 kts 65°
2026-05-04 14:58 41.29189 2.09684 17 ft 17 kts 65°
2026-05-04 14:58 41.29238 2.09829 18 ft 18 kts 65°
2026-05-04 14:58 41.29284 2.09938 17 ft 10 kts 47°
2026-05-04 14:58 41.29318 2.10024 17 ft 11 kts 65°
2026-05-04 14:59 41.29353 2.10127 17 ft 13 kts 65°
2026-05-04 14:59 41.29356 2.10245 15 ft 14 kts 128°
2026-05-04 14:59 41.29191 2.10235 16 ft 14 kts 252°
2026-05-04 15:00 41.29105 2.09991 19 ft 63 kts 245°
2026-05-04 15:00 41.28809 2.09128 17 ft 138 kts 245°
2026-05-04 15:00 41.28376 2.07813 429 ft 156 kts 245°
2026-05-04 15:01 41.26675 2.06360 1761 ft 155 kts 180°
2026-05-04 15:01 41.25627 2.06337 2457 ft 151 kts 182°
2026-05-04 15:01 41.24587 2.06277 3078 ft 149 kts 184°
2026-05-04 15:01 41.23499 2.06199 3412 ft 168 kts 185°
2026-05-04 15:02 41.22303 2.06102 3723 ft 186 kts 185°
2026-05-04 15:02 41.20945 2.05981 4015 ft 209 kts 185°
2026-05-04 15:02 41.19430 2.05843 4799 ft 216 kts 184°
2026-05-04 15:02 41.17918 2.05759 5739 ft 227 kts 179°
2026-05-04 15:03 41.16321 2.06376 6364 ft 252 kts 158°
2026-05-04 15:03 41.14683 2.07335 7137 ft 268 kts 159°
2026-05-04 15:03 41.12952 2.08316 8190 ft 273 kts 160°
2026-05-04 15:03 41.11182 2.09260 9423 ft 271 kts 163°
2026-05-04 15:04 41.09402 2.10187 10237 ft 282 kts 163°
2026-05-04 15:04 41.07496 2.11167 10495 ft 305 kts 163°
2026-05-04 15:04 41.05484 2.12207 10902 ft 320 kts 162°
2026-05-04 15:04 41.03393 2.13306 11583 ft 326 kts 162°
2026-05-04 15:05 41.01275 2.14436 12316 ft 330 kts 162°
2026-05-04 15:05 40.99131 2.15583 13045 ft 334 kts 162°
2026-05-04 15:05 40.96961 2.16743 13760 ft 338 kts 162°
2026-05-04 15:05 40.94795 2.17902 14374 ft 342 kts 163°
2026-05-04 15:06 40.92577 2.19084 15007 ft 345 kts 163°
2026-05-04 15:06 40.90333 2.20274 15639 ft 349 kts 163°
2026-05-04 15:06 40.88069 2.21474 16243 ft 353 kts 163°
2026-05-04 15:07 40.83452 2.23910 17262 ft 360 kts 163°
2026-05-04 15:07 40.81124 2.25133 17657 ft 362 kts 163°
2026-05-04 15:07 40.78774 2.26365 18059 ft 364 kts 163°
2026-05-04 15:07 40.76409 2.27608 18427 ft 367 kts 163°
2026-05-04 15:08 40.74040 2.28862 18775 ft 368 kts 163°
2026-05-04 15:08 40.71654 2.30130 18885 ft 370 kts 163°
2026-05-04 15:08 40.69298 2.31381 18922 ft 362 kts 163°
2026-05-04 15:08 40.67000 2.32596 18918 ft 359 kts 164°
2026-05-04 15:09 40.64679 2.33816 18913 ft 359 kts 163°
2026-05-04 15:09 40.62483 2.35432 18922 ft 369 kts 148°
2026-05-04 15:09 40.60494 2.37581 18917 ft 370 kts 146°
2026-05-04 15:10 40.56547 2.41936 18919 ft 370 kts 145°
2026-05-04 15:10 40.54581 2.44117 18914 ft 370 kts 145°
2026-05-04 15:10 40.50636 2.48477 18931 ft 370 kts 146°
2026-05-04 15:11 40.48662 2.50647 18918 ft 370 kts 146°
2026-05-04 15:11 40.46689 2.52810 18915 ft 370 kts 146°
2026-05-04 15:11 40.44710 2.54979 18914 ft 370 kts 146°
2026-05-04 15:11 40.42733 2.57146 18909 ft 370 kts 146°
2026-05-04 15:12 40.40756 2.59311 18911 ft 370 kts 146°
2026-05-04 15:12 40.38778 2.61478 18920 ft 370 kts 146°
2026-05-04 15:12 40.36800 2.63643 18923 ft 371 kts 146°
2026-05-04 15:12 40.34846 2.65778 18907 ft 370 kts 146°
2026-05-04 15:13 40.32895 2.67915 18673 ft 362 kts 145°
2026-05-04 15:13 40.30978 2.70015 18327 ft 357 kts 145°
2026-05-04 15:13 40.29073 2.72097 17862 ft 356 kts 145°
2026-05-04 15:13 40.27175 2.74171 17431 ft 353 kts 145°
2026-05-04 15:14 40.25294 2.76227 17010 ft 351 kts 145°
2026-05-04 15:14 40.23430 2.78264 16591 ft 348 kts 145°
2026-05-04 15:14 40.21572 2.80283 16163 ft 346 kts 145°
2026-05-04 15:14 40.19725 2.82288 15768 ft 344 kts 145°
2026-05-04 15:15 40.17886 2.84284 15366 ft 343 kts 145°
2026-05-04 15:15 40.16058 2.86268 14962 ft 341 kts 145°
2026-05-04 15:15 40.14231 2.88248 14558 ft 340 kts 145°
2026-05-04 15:16 40.10604 2.92178 13743 ft 337 kts 145°
2026-05-04 15:16 40.08821 2.94110 13311 ft 336 kts 145°
2026-05-04 15:16 40.05254 2.97975 12496 ft 330 kts 145°
2026-05-04 15:17 40.03495 2.99878 12101 ft 327 kts 145°
2026-05-04 15:17 40.00059 3.03590 11683 ft 310 kts 145°
2026-05-04 15:17 39.98416 3.05360 11331 ft 307 kts 145°
2026-05-04 15:18 39.96762 3.07135 10880 ft 308 kts 145°
2026-05-04 15:18 39.95112 3.08905 10496 ft 306 kts 146°
2026-05-04 15:18 39.93368 3.10294 10348 ft 290 kts 161°
2026-05-04 15:19 39.89649 3.11080 10107 ft 259 kts 189°
2026-05-04 15:19 39.87886 3.10856 9929 ft 252 kts 189°
2026-05-04 15:19 39.84500 3.10435 9542 ft 238 kts 189°
2026-05-04 15:20 39.82859 3.10234 9165 ft 235 kts 189°
2026-05-04 15:20 39.81213 3.10187 8752 ft 240 kts 173°
2026-05-04 15:20 39.79689 3.11132 8425 ft 248 kts 147°
2026-05-04 15:20 39.78377 3.12598 8071 ft 249 kts 143°
2026-05-04 15:21 39.77100 3.14119 7720 ft 248 kts 142°
2026-05-04 15:21 39.75852 3.15622 7555 ft 239 kts 142°
2026-05-04 15:21 39.73455 3.18526 7001 ft 232 kts 146°
2026-05-04 15:22 39.72065 3.19397 6689 ft 217 kts 178°
2026-05-04 15:22 39.70637 3.19103 6358 ft 206 kts 212°
2026-05-04 15:22 39.69457 3.15974 5659 ft 208 kts 269°
2026-05-04 15:23 39.69570 3.14142 5525 ft 200 kts 272°
2026-05-04 15:23 39.69711 3.12363 5213 ft 201 kts 272°
2026-05-04 15:23 39.69854 3.10577 5088 ft 192 kts 272°
2026-05-04 15:23 39.69994 3.08905 4927 ft 186 kts 272°
2026-05-04 15:24 39.69459 3.05789 4490 ft 179 kts 237°
2026-05-04 15:24 39.68164 3.03018 4396 ft 178 kts 238°
2026-05-04 15:25 39.67521 3.01643 4100 ft 179 kts 238°
2026-05-04 15:25 39.67083 3.00708 3893 ft 179 kts 238°
2026-05-04 15:25 39.66444 2.99344 3616 ft 179 kts 238°
2026-05-04 15:26 39.65162 2.96609 3144 ft 176 kts 237°
2026-05-04 15:26 39.64532 2.95266 2933 ft 173 kts 239°
2026-05-04 15:26 39.63275 2.92591 2515 ft 173 kts 237°
2026-05-04 15:27 39.62658 2.91277 2484 ft 165 kts 239°
2026-05-04 15:27 39.61556 2.88934 2255 ft 140 kts 237°
2026-05-04 15:28 39.60557 2.86808 1918 ft 136 kts 238°
2026-05-04 15:28 39.60068 2.85775 1751 ft 134 kts 237°
2026-05-04 15:28 39.59091 2.83721 1439 ft 137 kts 236°
2026-05-04 15:29 39.58591 2.82666 1237 ft 136 kts 236°
2026-05-04 15:30 39.56632 2.78498 475 ft 135 kts 238°
2026-05-04 15:30 39.55220 2.75480 41 ft 117 kts 236°
2026-05-04 15:31 39.54650 2.74278 30 ft 42 kts 239°
2026-05-04 15:31 39.54556 2.73983 30 ft 34 kts 262°
2026-05-04 15:32 39.54552 2.73828 30 ft 0 kts 271°
2026-05-04 15:32 39.54551 2.73820 30 ft 2 kts 269°
2026-05-04 15:33 39.54555 2.73715 30 ft 10 kts 288°
2026-05-04 15:34 39.54675 2.73608 30 ft 6 kts 332°
2026-05-04 15:34 39.54714 2.73576 30 ft 8 kts 327°
2026-05-04 15:34 39.54770 2.73484 30 ft 5 kts 243°
2026-05-04 15:35 39.54742 2.73472 30 ft 2 kts 164°
2026-05-04 15:35 39.54726 2.73463 30 ft 4 kts 216°
2026-05-04 15:35 39.54710 2.73433 30 ft 4 kts 239°
2026-05-04 15:36 39.54696 2.73402 30 ft 0 kts 239°